Regional Weather Roundup
Issued by NWS Newport/Morehead, NC

Current Version | Previous Version | Text Only | Print | Product List | Glossary Off
Versions: 1 2 3 4 5 6 7 8 9 10 11 12 13 14 15 16 17 18 19 20 21 22 23 24 25 26 27 28 29 30 31 32 33 34 35 36 37 38 39 40 41 42 43 44 45 46 47 48 49 50

000
ASUS42 KMHX 070925
RWRMHX
WEATHER ROUNDUP FOR EASTERN NORTH CAROLINA
NATIONAL WEATHER SERVICE NEWPORT/MOREHEAD CITY NC
500 AM EDT TUE JUL 07 2015

NOTE: "FAIR" INDICATES FEW OR NO CLOUDS BELOW 12,000 FEET
WITH NO SIGNIFICANT WEATHER AND/OR OBSTRUCTIONS TO VISIBILITY

NCZ015>017-031-032-045>047-102-103-071000-
NORTH COAST

CITY           SKY/WX    TMP DP  RH WIND       PRES   REMARKS
EDENTON        PTCLDY    75  72  89 SW9       30.10S
ELIZABETH CITY CLEAR     76  73  91 SW9       30.09S
KITTY HAWK     SUNNY     76  73  90 SW7       30.09S
MANTEO         CLEAR     76  74  93 SW7       30.11S

$$

NCZ045>047-081-094-103-104-071000-
CENTRAL COAST

CITY           SKY/WX    TMP DP  RH WIND       PRES   REMARKS
FRISCO         CLEAR     76  76 100 SW6       30.12R
SWANQUARTER      N/A     79 N/A N/A SW9       30.09R

$$

NCZ095-097-098-100-101-071000-
SOUTHERN COAST

CITY           SKY/WX    TMP DP  RH WIND       PRES   REMARKS
BEAUFORT       PTCLDY    79  75  87 SW8       30.11S
CEDAR ISLAND     N/A     77 N/A N/A S5        30.15S
JACKSONVILLE   CLEAR     74  72  93 CALM      30.11R
PINEY ISLAND   SUNNY    N/A N/A N/A SW5       30.11S
WILMINGTON     CLEAR     75  72  90 CALM      30.11S


$$

NCZ011>013-027>030-043-044-078>080-089-090>093-098-071000-
COASTAL PLAIN

CITY           SKY/WX    TMP DP  RH WIND       PRES   REMARKS
AHOSKIE        CLEAR     71  69  94 CALM      30.09S
CLINTON        CLEAR     72  72 100 CALM      30.11S
ELIZABETHTOWN  CLEAR     73  73  99 CALM      30.11R
GOLDSBORO      CLEAR     72  71  97 CALM      30.08S
GREENVILLE     PTCLDY    73  72  94 SW6       30.11S
HAVELOCK       PTCLDY    75  73  93 CALM      30.12R
KENANSVILLE    CLEAR     71  70  96 CALM      30.12R FOG
KINSTON        CLEAR     72  71  95 S3        30.11S
NEW BERN       CLEAR     75  72  90 SW3       30.12S
RICHLANDS      CLEAR     72  66  83 S3        30.11S
ROCKY MOUNT    CLEAR     71  69  93 S3        30.09S
WASHINGTON     CLEAR     74  72  94 SW3       30.11S
WHITEVILLE     CLEAR     72  70  93 CALM      30.11R

$$

AMZ130-135-150-152-154-156-158-170-250-252-270-ANZ085-086-088-633-658-670-071000-
MARINE OBSERVATIONS

STATION/POSITION TIME  TEMP    WIND        PRES    WAVE   SWELL
                       AIR SEA DIR/SP/G            HT/PER HT/PER
                 (UTC) (F)     (DEG/KT/KT) (MB)    (FT/S) (FT/S)
CHESAPEAKE LIGHT 0900   77     210/ 15/ 16 1018.9
64 E VA BEACH    0850   78 77  210/ 12/ 12 1018.8    3/ 9   3/ 9
DUCK             0900   78 74  230/ 12/ 17   N/A
2 E DUCK         0811      75                N/A     2/13   2/13
OREGON INLET     0900   79 82  230/ 13/ 16 1019.6
13E OREGON INLT  0900      77                N/A     3/ 8   2/13
HATTERAS CG      0900   78 80  220/  5/  6 1019.5
DIAMOND BUOY     0850   81 83  210/ 12/ 12 1019.7    3/ 8   2/ 8
CAPE LOOKOUT     0900   79     230/  9/ 13 1019.5
BEAUFORT LAB     0900   79 82  220/  6/ 10 1019.0
30 SE NEW RVR IN NOT AVBL
27 SE WRIGHTSVLE 0900      80  240/  8/ 10   N/A
5 SE WRIGHTSVLE  NOT AVBL
225 S CAPE HAT   0850   82 80  210/  8/ 10 1021.6    4/ 8   3/ 8
41 SE CHARLESTON 0850   80 83  240/ 10/ 12 1019.5    3/ 8   3/ 8

$$


USA.gov is the U.S. government's official web portal to all federal, state and local government web resources and services.